Home > Weather > Walsrode > Past weeks

Flag for Germany Weather for the Past 2 Weeks in Walsrode, Lower Saxony, Germany

Now
45 °F

Passing clouds.


Feels Like: 39 °F
Forecast: 42 / 49 °F
Wind: 10 mph from South

Location: Fassberg

Current Time: Feb 7, 2016 at 1:13:32 AM

Latest Report: Feb 6, 2016 at 11:20 PM


Visibility: N/A

Pressure: 29.65 "Hg

Humidity: 76%

Dew point: 37 °F

Location of WalsrodeLocation

Historic Weather in Walsrode — Graph

°F

Walsrode Temperature Yesterday

Maximum temperature yesterday: 52 °F (at 3:20 PM)
Minimum temperature yesterday: 41 °F (at 7:20 PM)
Average temperature yesterday: 47 °F

High & Low Weather Summary for the Past Weeks

 TemperatureHumidityPressure
High54 °F (Jan 27, 7:20 PM)100% (Jan 23, 7:20 AM)30.48 "Hg (Jan 23, 7:20 AM)
Low25 °F (Jan 22, 11:20 PM)57% (Jan 28, 2:20 PM)29.53 "Hg (Jan 30, 4:20 PM)
Average43 °F86%29.99 "Hg
* Reported Jan 22 11:20 PM — Feb 6 11:20 PM, Walsrode, Weather by CustomWeather, © 2016

Note: Actual official high and low records may vary slightly from our data, if they occured in-between our weather recording intervals... More about our weather records

Advertising

Walsrode Weather History for the Previous 24 Hours

 ConditionsComfort  
Time TempWeatherWind HumidityBarometerVisibility
11:20 PM
Sat, Feb 6
45 °FPassing clouds.10 mph76%29.65 "HgN/A
10:20 PM45 °FPassing clouds.8 mph81%29.68 "HgN/A
9:20 PM45 °FPassing clouds.8 mph81%29.68 "HgN/A
8:20 PM46 °FPassing clouds.8 mph76%29.71 "HgN/A
7:20 PM41 °FPassing clouds.5 mph93%29.71 "HgN/A
6:20 PM45 °FPassing clouds.6 mph81%29.74 "HgN/A
5:20 PM48 °FPassing clouds.8 mph76%29.74 "HgN/A
4:20 PM50 °FPartly sunny.10 mph71%29.77 "HgN/A
3:20 PM52 °FPartly sunny.6 mph72%29.77 "HgN/A
2:20 PM50 °FPartly sunny.5 mph76%29.80 "HgN/A
1:20 PM50 °FPartly sunny.12 mph76%29.83 "HgN/A
12:20 PM50 °FBroken clouds.13 mph71%29.86 "HgN/A
11:20 AM48 °FScattered clouds.12 mph82%29.86 "HgN/A
10:20 AM46 °FPartly sunny.10 mph82%29.89 "HgN/A
9:20 AM45 °FScattered clouds.10 mph87%29.92 "HgN/A
8:20 AM46 °FPartly sunny.9 mph87%29.92 "HgN/A
7:20 AM46 °FPassing clouds.10 mph87%29.95 "HgN/A
6:20 AM46 °FPassing clouds.9 mph87%29.95 "HgN/A
5:20 AM46 °FPassing clouds.10 mph87%29.95 "HgN/A
4:20 AM46 °FPassing clouds.10 mph87%29.98 "HgN/A
3:20 AM46 °FPassing clouds.9 mph93%30.01 "Hg4 mi
2:20 AM46 °FFog.9 mph93%30.01 "Hg3 mi
1:20 AM46 °FDrizzle. Fog.9 mph93%30.04 "Hg1 mi
Weather by CustomWeather, © 2016

See weather overviewHow to use our weather pages